Total_Precipitation_Accumulation
0.18 0.40 0.76 1.20 1.57 1.87 1.68 1.13 0.80 0.74 0.77 0.71 0.77 0.81 0.82 0.90 1.34 2.20 1.82 1.46 1.36 1.38 1.42 1.68 1.97 1.93 2.07 2.09 2.04 2.06 2.01 2.01 2.06 2.07 2.09 2.10 2.00 1.96 1.93 1.89 1.98 2.00 1.96 2.03 2.04 1.86 1.71 1.55 1.43
0.27 0.53 0.85 1.27 1.77 2.03 1.67 0.97 0.73 0.74 0.71 0.60 0.62 0.74 0.85 0.77 0.82 1.19 1.38 1.28 1.05 1.09 1.24 1.37 1.79 1.86 1.78 1.68 1.73 1.87 1.83 1.78 1.81 1.87 2.05 2.21 2.21 2.13 2.11 2.06 2.05 1.99 1.93 2.10 1.96 1.76 1.51 1.35 1.29
0.38 0.63 0.92 1.26 1.34 1.49 1.29 0.78 0.64 0.55 0.64 0.67 0.65 0.65 0.85 0.88 0.86 1.04 1.14 0.99 0.78 0.79 1.03 1.36 1.59 1.65 1.54 1.44 1.51 1.66 1.61 1.64 1.69 1.68 1.83 2.07 2.17 2.29 2.30 2.15 1.97 1.86 1.90 2.02 1.88 1.63 1.36 1.20 1.17
0.61 0.81 0.88 0.96 0.79 0.77 0.71 0.57 0.48 0.44 0.54 0.60 0.71 0.82 0.93 0.97 0.99 1.01 0.94 0.77 0.60 0.67 0.91 1.23 1.43 1.43 1.31 1.28 1.39 1.51 1.53 1.57 1.57 1.51 1.65 1.86 1.96 2.00 2.04 2.01 1.79 1.71 1.77 1.80 1.95 1.60 1.33 1.21 1.23
0.67 0.77 0.94 0.78 0.64 0.68 0.60 0.47 0.40 0.38 0.50 0.62 0.65 0.92 1.25 1.20 0.93 0.82 0.79 0.74 0.60 0.71 0.94 1.15 1.33 1.32 1.31 1.35 1.34 1.38 1.50 1.47 1.39 1.42 1.53 1.73 1.80 1.91 1.90 1.78 1.56 1.53 1.67 1.71 1.80 1.63 1.39 1.25 1.24
0.53 0.62 0.72 0.62 0.59 0.56 0.49 0.39 0.38 0.39 0.49 0.69 0.65 0.91 1.54 1.40 0.96 0.79 0.69 0.66 0.64 0.69 0.87 1.05 1.24 1.27 1.31 1.34 1.30 1.31 1.29 1.30 1.34 1.42 1.50 1.52 1.67 1.77 1.69 1.63 1.53 1.42 1.57 1.58 1.51 1.64 1.47 1.33 1.24
0.44 0.51 0.48 0.48 0.46 0.49 0.44 0.37 0.37 0.35 0.52 0.83 0.70 0.98 1.67 1.68 1.11 0.84 0.79 0.73 0.73 0.69 0.82 1.04 1.23 1.27 1.28 1.31 1.26 1.30 1.37 1.31 1.33 1.41 1.50 1.58 1.58 1.51 1.43 1.51 1.56 1.42 1.43 1.41 1.36 1.53 1.60 1.45 1.29
0.28 0.30 0.30 0.34 0.34 0.38 0.32 0.27 0.28 0.43 0.57 0.70 0.60 0.94 1.69 1.65 1.13 0.97 1.02 0.98 1.07 1.09 1.07 1.03 1.05 1.17 1.20 1.18 1.30 1.40 1.42 1.36 1.34 1.41 1.56 1.69 1.57 1.45 1.36 1.32 1.48 1.46 1.36 1.30 1.27 1.44 1.56 1.41 1.37
0.17 0.27 0.30 0.27 0.25 0.25 0.23 0.22 0.25 0.40 0.55 0.72 0.78 0.89 1.20 1.09 1.05 1.16 1.33 1.45 1.51 1.69 1.71 1.41 1.19 1.18 1.25 1.17 1.21 1.51 1.59 1.50 1.59 1.73 1.80 1.94 1.97 1.72 1.68 1.62 1.73 1.65 1.54 1.51 1.53 1.55 1.72 1.54 1.33
0.14 0.24 0.21 0.14 0.14 0.17 0.17 0.20 0.29 0.46 0.72 1.01 1.04 1.05 1.25 1.19 1.05 1.20 1.39 1.60 1.75 2.06 2.13 1.82 1.58 1.33 1.19 1.07 1.32 1.65 1.64 1.75 1.91 2.06 1.96 2.25 2.46 2.29 1.77 2.01 2.34 2.26 2.20 2.06 2.04 1.98 1.81 1.77 1.63
0.09 0.13 0.12 0.10 0.09 0.11 0.14 0.18 0.27 0.51 0.92 1.37 1.63 1.67 1.53 1.37 1.36 1.41 1.49 1.72 2.01 2.17 2.17 1.93 1.75 1.59 1.34 1.43 1.40 1.60 1.91 2.15 2.05 1.90 1.95 2.35 2.27 2.02 1.97 2.15 2.38 2.56 2.43 2.30 2.37 2.44 2.19 2.33 2.71
0.07 0.07 0.07 0.07 0.08 0.09 0.13 0.18 0.30 0.51 0.89 1.14 1.38 1.69 1.81 1.69 1.82 1.85 1.84 2.10 2.36 2.32 2.23 2.07 1.87 1.69 1.59 1.56 1.55 1.67 1.79 2.01 2.06 2.15 2.07 2.30 2.68 2.58 2.51 2.67 2.67 2.72 2.86 3.17 3.01 3.12 2.87 2.74 2.78
0.04 0.05 0.06 0.07 0.08 0.09 0.11 0.22 0.36 0.57 0.68 0.85 1.01 1.18 1.47 1.87 2.27 2.44 2.52 2.87 2.82 2.71 2.65 2.43 2.07 2.03 1.97 2.08 2.17 1.90 1.94 2.05 2.29 2.57 2.51 2.49 2.84 2.82 2.82 2.87 2.95 2.77 2.84 3.03 3.33 3.21 3.26 3.30 3.04
0.05 0.06 0.07 0.10 0.11 0.12 0.17 0.32 0.41 0.64 0.66 0.75 0.95 1.16 1.70 2.32 2.56 2.89 3.29 3.54 3.48 3.31 3.36 3.10 2.70 2.65 2.63 2.51 2.50 2.44 2.23 2.39 2.50 2.68 2.61 2.68 2.94 3.08 3.03 2.84 2.93 2.81 2.76 2.88 3.14 3.18 3.60 3.62 3.53
0.05 0.09 0.13 0.14 0.15 0.17 0.25 0.52 0.59 0.69 0.73 0.84 1.18 1.37 1.82 2.21 2.54 2.70 3.17 3.51 3.52 3.51 3.73 3.68 3.48 3.48 3.44 3.22 2.96 2.74 2.64 2.61 2.88 2.99 2.88 2.92 2.95 3.11 3.07 3.01 2.86 2.83 2.90 3.12 3.18 3.22 3.54 3.57 3.54
0.10 0.18 0.28 0.21 0.19 0.22 0.35 0.83 0.73 0.72 0.92 1.19 1.41 1.54 1.79 2.00 2.40 2.55 2.91 3.43 3.71 3.73 3.96 4.18 4.08 4.10 3.98 3.85 3.59 3.25 3.09 3.09 3.04 2.96 2.99 2.89 2.99 3.03 3.19 3.03 2.78 2.86 2.84 3.05 3.41 3.53 3.72 3.91 3.90
0.16 0.24 0.36 0.35 0.27 0.24 0.42 0.90 0.89 0.93 1.06 1.19 1.33 1.58 1.74 1.74 2.12 2.58 2.89 3.49 3.93 4.06 4.46 4.84 4.90 4.83 4.53 4.19 4.01 3.88 3.70 3.50 3.24 3.17 3.12 2.97 2.93 2.89 3.12 3.02 2.93 2.92 3.10 3.17 2.97 3.58 3.93 4.10 4.05
0.21 0.20 0.25 0.32 0.30 0.30 0.48 0.67 0.80 0.98 1.13 1.25 1.28 1.43 1.46 1.60 2.07 2.62 2.98 3.34 4.01 4.56 5.18 5.28 5.29 5.55 5.29 4.95 4.75 4.55 4.13 3.76 3.48 3.35 3.21 2.94 2.88 2.81 3.12 2.86 2.87 2.97 3.30 3.40 3.46 3.89 3.97 3.86 4.05
0.16 0.22 0.29 0.35 0.32 0.46 0.64 0.79 0.89 1.02 1.09 1.28 1.38 1.32 1.36 1.66 2.08 2.54 2.95 3.38 3.80 4.40 5.02 5.65 5.84 5.72 5.50 5.18 4.72 4.36 3.94 3.71 3.45 3.17 2.95 2.87 2.83 2.93 3.39 3.02 3.32 3.22 3.27 3.31 3.46 3.74 3.75 3.54 3.85
0.15 0.25 0.34 0.40 0.35 0.46 0.67 0.93 1.08 1.07 1.07 1.14 1.33 1.45 1.48 1.74 2.07 2.51 3.02 3.29 3.47 3.82 4.29 4.75 5.05 4.75 4.40 4.20 4.10 3.95 3.86 3.47 3.32 3.26 3.32 3.01 3.02 3.03 3.09 3.34 3.25 3.28 3.38 3.17 3.24 3.58 3.44 3.03 3.44
0.18 0.22 0.24 0.30 0.35 0.50 0.76 1.21 1.28 1.05 0.97 1.03 1.15 1.42 1.62 1.68 1.98 2.30 2.75 2.98 3.08 3.28 3.44 3.60 3.80 3.86 3.88 3.92 3.98 4.08 4.24 3.92 3.79 3.73 3.64 3.16 3.05 3.04 3.11 3.07 3.02 3.16 3.11 3.06 3.05 3.25 3.36 3.17 3.17
0.22 0.16 0.14 0.17 0.36 0.71 0.81 1.42 1.48 1.17 1.10 1.11 1.14 1.26 1.36 1.53 1.65 1.77 2.09 2.52 2.52 2.59 2.86 3.36 3.56 3.65 3.83 4.07 4.05 4.08 4.05 3.99 3.97 4.07 4.01 3.82 3.52 3.29 3.06 2.89 2.86 2.88 2.77 2.86 2.63 2.91 3.13 3.27 2.99
0.15 0.12 0.15 0.18 0.35 0.58 0.64 1.02 1.26 1.28 1.21 1.11 1.07 1.16 1.22 1.31 1.41 1.52 1.73 2.15 2.23 2.16 2.48 3.07 3.62 3.83 3.97 4.16 4.25 4.48 4.31 4.17 4.04 4.09 4.16 3.93 3.66 3.32 2.94 2.91 2.91 2.86 2.74 2.62 2.55 2.77 2.72 2.82 2.85
0.11 0.15 0.24 0.33 0.56 0.94 0.73 0.80 1.22 1.22 1.07 0.98 0.88 0.90 0.99 0.97 1.05 1.25 1.57 2.01 2.21 2.30 2.57 3.02 3.49 3.81 3.96 4.05 4.09 4.17 4.17 4.15 3.93 3.81 3.53 3.13 3.01 2.90 2.67 2.63 2.67 2.60 2.61 2.59 2.55 2.57 2.53 2.62 2.73
0.13 0.24 0.68 1.06 1.33 1.35 0.72 0.76 1.10 0.93 0.87 0.81 0.89 0.89 0.80 0.80 0.89 0.92 1.05 1.22 1.37 1.58 1.86 2.19 2.61 2.92 3.10 3.26 3.34 3.33 3.53 3.55 3.27 3.01 2.81 2.51 2.28 2.18 2.17 2.25 2.32 2.26 2.32 2.35 2.50 2.42 2.33 2.43 2.61
0.12 0.17 0.49 0.76 0.90 0.98 0.87 1.17 1.17 0.81 0.69 0.70 0.78 0.76 0.63 0.58 0.57 0.59 0.65 0.76 1.02 1.31 1.70 1.96 2.08 2.23 2.41 2.57 2.66 2.71 2.78 2.73 2.53 2.60 2.35 2.16 2.00 1.91 1.98 2.06 2.05 2.02 2.04 2.00 2.31 2.18 2.13 2.25 2.31
0.10 0.11 0.17 0.26 0.37 0.69 1.00 1.33 1.23 0.90 0.83 0.76 0.64 0.57 0.52 0.42 0.41 0.47 0.51 0.59 0.83 1.11 1.37 1.53 1.70 1.95 2.17 2.35 2.35 2.32 2.16 2.16 2.23 2.19 2.04 1.96 1.99 1.91 1.97 1.93 1.98 1.98 2.03 2.09 2.21 2.08 2.04 2.26 2.23
0.11 0.13 0.16 0.21 0.41 0.71 0.98 1.31 1.41 1.13 1.00 0.80 0.74 0.77 0.54 0.40 0.39 0.46 0.51 0.57 0.71 0.81 1.06 1.26 1.47 1.75 1.89 1.99 2.01 1.94 1.95 1.90 1.96 1.91 1.89 1.87 1.93 1.98 1.99 1.96 2.04 1.97 1.94 1.98 2.04 1.83 1.84 2.09 2.16
0.15 0.15 0.16 0.18 0.25 0.50 0.92 1.16 1.03 0.95 0.83 0.69 0.68 0.66 0.58 0.54 0.42 0.39 0.46 0.51 0.63 0.79 1.00 1.29 1.49 1.62 1.70 1.73 1.76 1.83 1.80 1.79 1.85 1.81 1.77 1.81 1.95 1.97 1.91 1.86 1.86 1.87 1.85 1.91 1.94 1.73 1.86 2.03 2.09
0.16 0.16 0.16 0.22 0.23 0.26 0.52 0.87 0.72 0.67 0.70 0.67 0.65 0.65 0.64 0.56 0.52 0.51 0.60 0.64 0.72 0.84 0.99 1.30 1.58 1.64 1.69 1.78 1.91 2.02 2.06 2.11 2.07 1.87 1.76 1.81 1.88 1.92 1.94 1.92 1.87 1.77 1.79 2.00 2.06 1.92 2.01 2.11 2.10